[[{"header":{"parameterUnit":"m.s-1","parameterCategory":2,"la1":30.2991,"la2":30.254,"lo1":-89.0895,"lo2":-89.0444,"dy":0.0017,"dx":0.0017,"nx":28,"ny":28,"refTime":"2025-04-16T03:00:00:Z","depth":"0","parameterNumber":2,"parameterNumberName":"U-component_of_CURRENTS"},"data":[0,0,0,0,0,0,0,0,0,0,0,0,0,0,0,0,0,0,0,0,0,0,0,0,0,0,0,0,0,0,0,0,0,0,0,0,0,0,0,0,0,0,0,0,0,0,0,0,0,0,0,0,0,0,0,0,0,0,0.2545,0.2545,0,0.2585,0.2585,0.2586,0.2593,0.2593,0.2593,0.2593,0.257,0.257,0.257,0,0,0,0,0,0,0,0,0,0,0,0,0,0.2536,0.2535,0.2545,0.2545,0.2546,0.2585,0.2585,0.2586,0.2593,0.2593,0.2593,0.2593,0.257,0.257,0.257,0,0,0,0,0,0,0,0,0,0,0,0,0,0.2553,0.2535,0.2545,0.2555,0.2556,0.2585,0.2585,0.2586,0.2593,0.2593,0.2593,0.2592,0.2571,0.257,0.257,0.2573,0,0,0.2568,0.2568,0,0,0,0,0,0,0,0,0.2552,0.2553,0.2553,0.2554,0.2556,0.2585,0.2574,0.2579,0.2594,0.2578,0.2593,0.2592,0.257,0.257,0.2578,0.2572,0.2571,0.2568,0.2567,0.2567,0.2567,0,0,0,0,0,0,0,0.2551,0.2552,0.256,0.2554,0.2556,0.2579,0.258,0.2576,0.2574,0.258,0.2581,0.2587,0.257,0.2578,0.2577,0.2571,0.2568,0.2567,0.2567,0.2567,0.2585,0.2586,0,0,0,0,0,0,0.2545,0.255,0.2559,0.2561,0.2554,0.2579,0.2581,0.2575,0.2575,0.2576,0.2587,0.2587,0.2579,0.2578,0.2576,0.2622,0.2567,0.2567,0.2566,0.2584,0.2585,0.2586,0,0,0,0,0,0,0.2544,0.2544,0.2557,0.2558,0.2562,0.2579,0.2573,0.2576,0.2584,0.2582,0.2581,0.2592,0.2579,0.2577,0.2594,0.2619,0.2566,0.2566,0.2583,0.2585,0.2586,0.2686,0,0,0,0,0,0,0.2543,0.2544,0.254,0.2557,0.2561,0.2581,0.2574,0.2577,0.2589,0.2589,0.2585,0.2583,0.2579,0.2595,0.2594,0.2617,0.2566,0.2582,0.2584,0.2585,0.2681,0.269,0.2698,0,0,0,0,0,0.2543,0.2534,0.2539,0.2541,0.2554,0.2582,0.2586,0.2597,0.2589,0.2601,0.2608,0.2583,0.2603,0.2596,0.2594,0.2618,0.2582,0.2584,0.2585,0.2678,0.2689,0.2698,0,0,0,0,0,0,0.2517,0.2534,0.2541,0.2534,0.2562,0.2583,0.2592,0.2598,0.2613,0.2611,0.2602,0.2602,0.2619,0.2603,0.2596,0.2625,0.2584,0.2586,0.2655,0.2665,0.2673,0.2676,0.2565,0,0,0,0,0,0.2513,0.2515,0.2541,0.2537,0.2552,0.2573,0.2584,0.2596,0.2611,0.2617,0.2619,0.2618,0.2625,0.2634,0.2628,0.2654,0.2671,0.2662,0.267,0.2678,0.2677,0.2724,0.2738,0.2592,0.2592,0.2592,0,0,0.2498,0.2511,0.2509,0.2534,0.2554,0.2587,0.2578,0.2601,0.2633,0.2611,0.2648,0.2641,0.2634,0.2665,0.267,0.2658,0.2739,0.268,0.2687,0.2682,0.2728,0.2742,0.2755,0.2594,0.2593,0.2593,0,0,0.2485,0.2488,0.2497,0.2527,0.2566,0.259,0.2598,0.263,0.2649,0.2686,0.2677,0.2691,0.2701,0.2714,0.2717,0.2762,0.2772,0.2756,0.2816,0.2863,0.2876,0.2887,0.2983,0.3002,0.2772,0.2773,0.2773,0,0.2468,0.2485,0.2504,0.2535,0.2565,0.2594,0.2627,0.2657,0.2693,0.2722,0.2705,0.2743,0.2725,0.2779,0.2794,0.2782,0.283,0.2786,0.2877,0.2888,0.2898,0.2993,0.3013,0.2778,0.2777,0.2777,0.2776,0,0.2481,0.2498,0.2509,0.2561,0.2598,0.2629,0.2684,0.2724,0.2747,0.2781,0.2831,0.2827,0.2854,0.2849,0.2836,0.2902,0.2924,0.2877,0.2859,0.2919,0.3015,0.3034,0.2785,0.2783,0.2782,0.278,0,0,0.2424,0.2501,0.2503,0.2544,0.2618,0.2651,0.2721,0.2797,0.285,0.2885,0.2952,0.296,0.2966,0.2968,0.2959,0.2993,0.3111,0.2975,0.2975,0.3085,0.3273,0.3326,0.3352,0.3093,0.3096,0.3098,0.3334,0,0.2428,0.2485,0.2529,0.2597,0.2638,0.2707,0.2774,0.285,0.2906,0.298,0.3005,0.3045,0.3014,0.3028,0.3068,0.3081,0.3157,0.3055,0.3184,0.3189,0.3239,0.3372,0.3212,0.341,0.3352,0.3355,0.3357,0,0.2428,0.2472,0.2533,0.2637,0.2662,0.2714,0.2839,0.29,0.3014,0.3059,0.3127,0.3145,0.3215,0.3154,0.3275,0.3221,0.3263,0.3277,0.3286,0.3305,0.3275,0.3327,0.3446,0.3325,0.3386,0.3383,0.3381,0,0.2393,0.2476,0.2528,0.2562,0.2681,0.2734,0.2803,0.2922,0.2988,0.3106,0.3163,0.3256,0.3301,0.3359,0.3417,0.3354,0.3557,0.3469,0.3577,0.3583,0.3454,0.3444,0.3472,0.3569,0.3569,0.3568,0.3567,0,0.2385,0.2425,0.2516,0.2548,0.2619,0.2718,0.2808,0.2892,0.3023,0.3119,0.3193,0.3295,0.3347,0.3468,0.3497,0.3641,0.3644,0.3632,0.3654,0.349,0.3482,0.3371,0.3306,0.3577,0.3575,0.3573,0.3572,0,0.2336,0.2395,0.2453,0.2566,0.2601,0.2649,0.2787,0.2864,0.2991,0.3121,0.3161,0.335,0.3525,0.3615,0.3741,0.3759,0.3766,0.3907,0.375,0.3748,0.3693,0.364,0.3625,0.3517,0.4059,0.4062,0.4064,0,0.2321,0.2346,0.2432,0.2465,0.2515,0.26,0.267,0.2817,0.2905,0.3167,0.3233,0.3459,0.3607,0.3868,0.394,0.4073,0.3905,0.4008,0.3831,0.3721,0.3676,0.3521,0.3416,0.3723,0.3723,0.3722,0.3722,0,0.2288,0.2311,0.2357,0.2422,0.2485,0.2547,0.2661,0.2724,0.2927,0.3057,0.3278,0.3421,0.3708,0.3801,0.4012,0.4054,0.38,0.4005,0.3895,0.3447,0.3269,0.3163,0.358,0.3717,0.3718,0.3718,0.3718,0.3718,0.2259,0.2272,0.2338,0.2396,0.245,0.2513,0.2551,0.2687,0.2824,0.3028,0.3227,0.3407,0.3604,0.3874,0.3922,0.3875,0.3828,0.3725,0.3692,0.3562,0.3373,0.3835,0.3984,0.3985,0.3987,0.3989,0.399,0,0.2248,0.2281,0.2326,0.2387,0.2418,0.2468,0.2566,0.2603,0.2726,0.2936,0.3104,0.3299,0.343,0.3567,0.3627,0.3534,0.3339,0.3441,0.3113,0.3039,0.3457,0.3351,0.3361,0.3361,0.3361,0.3361,0.3361,0.3361,0.2256,0.2293,0.2319,0.2357,0.2389,0.2406,0.2441,0.2494,0.2608,0.2744,0.2851,0.299,0.3206,0.3367,0.3299,0.3226,0.2942,0.2864,0.2857,0.3073,0.3092,0.311,0.2993,0.2927,0.2927,0.2264,0.2259,0.2255]},{"header":{"parameterUnit":"m.s-1","parameterCategory":2,"la1":30.2991,"la2":30.254,"lo1":-89.0895,"lo2":-89.0444,"dy":0.0017,"dx":0.0017,"nx":28,"ny":28,"refTime":"2025-04-16T03:00:00:Z","depth":"0","parameterNumber":3,"parameterNumberName":"V-component_of_CURRENTS"},"data":[0,0,0,0,0,0,0,0,0,0,0,0,0,0,0,0,0,0,0,0,0,0,0,0,0,0,0,0,0,0,0,0,0,0,0,0,0,0,0,0,0,0,0,0,0,0,0,0,0,0,0,0,0,0,0,0,0,0,-0.0557,-0.0559,0,-0.0697,-0.0698,-0.07,-0.0775,-0.0776,-0.0776,-0.0776,-0.1014,-0.102,-0.1026,0,0,0,0,0,0,0,0,0,0,0,0,0,-0.0438,-0.0439,-0.0557,-0.0559,-0.0561,-0.0697,-0.0698,-0.07,-0.0775,-0.0776,-0.0776,-0.0776,-0.1012,-0.1019,-0.1026,0,0,0,0,0,0,0,0,0,0,0,0,0,-0.0523,-0.044,-0.0557,-0.0616,-0.0623,-0.0696,-0.0698,-0.0701,-0.0775,-0.0776,-0.0776,-0.0777,-0.1009,-0.1018,-0.1027,-0.1073,0,0,-0.1055,-0.1059,0,0,0,0,0,0,0,0,-0.0518,-0.0527,-0.0605,-0.0612,-0.062,-0.0721,-0.0744,-0.0831,-0.0775,-0.0715,-0.0776,-0.0777,-0.0926,-0.0941,-0.0963,-0.1084,-0.1094,-0.1055,-0.1061,-0.1065,-0.1067,0,0,0,0,0,0,0,-0.0512,-0.0522,-0.0611,-0.0607,-0.0616,-0.0664,-0.0676,-0.076,-0.0817,-0.0721,-0.0727,-0.0745,-0.093,-0.0954,-0.0969,-0.1098,-0.1055,-0.1063,-0.1069,-0.1072,-0.131,-0.1311,0,0,0,0,0,0,-0.0493,-0.0516,-0.0606,-0.0615,-0.0571,-0.0666,-0.0679,-0.0686,-0.0814,-0.0833,-0.0744,-0.0748,-0.0938,-0.0959,-0.0978,-0.1068,-0.1065,-0.1073,-0.1078,-0.1309,-0.131,-0.1311,0,0,0,0,0,0,-0.049,-0.0499,-0.0601,-0.0571,-0.0587,-0.0667,-0.0675,-0.0689,-0.0714,-0.0831,-0.0852,-0.0755,-0.0939,-0.0965,-0.1055,-0.1077,-0.1077,-0.1086,-0.1308,-0.1309,-0.131,-0.1231,0,0,0,0,0,0,-0.0486,-0.0497,-0.0497,-0.0569,-0.0588,-0.0645,-0.0675,-0.0691,-0.0725,-0.0731,-0.0848,-0.087,-0.0942,-0.1041,-0.1064,-0.109,-0.1093,-0.1307,-0.1309,-0.131,-0.1233,-0.123,-0.1227,0,0,0,0,0,-0.0481,-0.048,-0.0496,-0.0507,-0.0584,-0.0645,-0.0659,-0.0717,-0.0725,-0.0739,-0.0815,-0.0866,-0.1068,-0.1049,-0.1076,-0.1104,-0.1306,-0.1308,-0.131,-0.1234,-0.1231,-0.1227,0,0,0,0,0,0,-0.0425,-0.049,-0.0508,-0.0525,-0.058,-0.0658,-0.0677,-0.0709,-0.0776,-0.0779,-0.0879,-0.0907,-0.0996,-0.1059,-0.1034,-0.1178,-0.1196,-0.1203,-0.1129,-0.1127,-0.1124,-0.1064,-0.11,0,0,0,0,0,-0.0411,-0.0428,-0.0497,-0.051,-0.0533,-0.0599,-0.0629,-0.0664,-0.0733,-0.0762,-0.0842,-0.0933,-0.1025,-0.1079,-0.1165,-0.1242,-0.1245,-0.1279,-0.1276,-0.1273,-0.1244,-0.1279,-0.1275,-0.1318,-0.1318,-0.1317,0,0,-0.0393,-0.043,-0.044,-0.05,-0.0542,-0.057,-0.0618,-0.0656,-0.0683,-0.078,-0.0841,-0.0926,-0.1042,-0.1129,-0.1175,-0.1186,-0.1257,-0.1276,-0.1272,-0.1244,-0.128,-0.1276,-0.1272,-0.1319,-0.1319,-0.1318,0,0,-0.0368,-0.0395,-0.0404,-0.0441,-0.0501,-0.0544,-0.055,-0.0624,-0.0663,-0.0732,-0.0811,-0.0892,-0.1032,-0.1113,-0.1174,-0.1206,-0.1238,-0.1251,-0.1196,-0.1231,-0.1227,-0.1223,-0.1181,-0.1175,-0.1253,-0.1253,-0.1253,0,-0.0341,-0.0358,-0.0417,-0.0432,-0.0448,-0.0524,-0.0526,-0.0586,-0.068,-0.0705,-0.0741,-0.0917,-0.1019,-0.1118,-0.1137,-0.1198,-0.1195,-0.1197,-0.1223,-0.122,-0.1217,-0.1176,-0.1169,-0.1249,-0.125,-0.125,-0.125,0,-0.0331,-0.0336,-0.0342,-0.0381,-0.0408,-0.0424,-0.0499,-0.0537,-0.0586,-0.0643,-0.0737,-0.0866,-0.0958,-0.1026,-0.1098,-0.1149,-0.1142,-0.1208,-0.1218,-0.1207,-0.1165,-0.116,-0.1244,-0.1245,-0.1247,-0.1247,0,0,-0.0274,-0.0324,-0.0319,-0.031,-0.0373,-0.0385,-0.0431,-0.0486,-0.0483,-0.0606,-0.0614,-0.08,-0.0846,-0.0916,-0.1023,-0.1073,-0.1059,-0.1126,-0.113,-0.1057,-0.1073,-0.1014,-0.1002,-0.1134,-0.1133,-0.1133,-0.1035,0,-0.024,-0.0238,-0.0275,-0.0253,-0.0251,-0.031,-0.0332,-0.0389,-0.0446,-0.0478,-0.0624,-0.0682,-0.0817,-0.0845,-0.0922,-0.1034,-0.1047,-0.1075,-0.1117,-0.1116,-0.1045,-0.0996,-0.0953,-0.0859,-0.103,-0.1029,-0.1028,0,-0.0211,-0.0208,-0.0183,-0.0165,-0.0164,-0.0158,-0.016,-0.0189,-0.027,-0.0317,-0.0405,-0.05,-0.0613,-0.071,-0.0862,-0.0873,-0.0946,-0.1025,-0.1024,-0.0989,-0.1048,-0.091,-0.0843,-0.1041,-0.102,-0.1021,-0.1021,0,-0.0135,-0.013,-0.0096,-0.0096,-0.0105,-0.0083,-0.008,-0.0129,-0.0118,-0.0193,-0.018,-0.0343,-0.0381,-0.0542,-0.0719,-0.0783,-0.0837,-0.0949,-0.0946,-0.094,-0.0918,-0.0911,-0.1024,-0.0999,-0.0999,-0.1,-0.1,0,-0.0082,-0.0046,-0.0047,-0.0024,0.0053,0.0021,0.0101,0.0062,0.006,0.0118,-0.0072,-0.0044,-0.034,-0.0424,-0.0618,-0.0734,-0.0753,-0.089,-0.0912,-0.0886,-0.0877,-0.1063,-0.1183,-0.0996,-0.0997,-0.0997,-0.0998,0,-0.0009,-0.0023,0.0034,0.0063,0.0088,0.015,0.0234,0.0291,0.026,0.0339,0.033,0.0205,0.0104,-0.0152,-0.0361,-0.0551,-0.0781,-0.0732,-0.0638,-0.0651,-0.0865,-0.098,-0.1049,-0.111,-0.0714,-0.0712,-0.071,0,0.0026,0.0054,0.0119,0.0185,0.0211,0.0302,0.0375,0.0381,0.0461,0.0515,0.0575,0.0513,0.0498,0.0219,-0.0114,-0.0378,-0.0625,-0.0527,-0.0667,-0.0825,-0.0973,-0.1066,-0.1121,-0.0589,-0.0587,-0.0585,-0.0583,0,0.011,0.0128,0.0181,0.0309,0.0407,0.0518,0.0634,0.0726,0.0771,0.0854,0.098,0.099,0.0753,0.051,0.0134,-0.01,-0.0642,-0.0489,-0.071,-0.0904,-0.0958,-0.1042,-0.0662,-0.0564,-0.0566,-0.0567,-0.0568,-0.0569,0.0189,0.025,0.0329,0.0454,0.0573,0.0734,0.0838,0.0984,0.115,0.1305,0.1317,0.1381,0.0996,0.0495,0.0177,-0.0416,-0.0452,-0.0638,-0.0759,-0.0834,-0.092,-0.0444,-0.0355,-0.0355,-0.0356,-0.0357,-0.0357,0,0.029,0.0356,0.048,0.0628,0.0772,0.081,0.101,0.1124,0.1344,0.1531,0.166,0.1539,0.1082,0.0525,-0.0237,-0.0639,-0.0835,-0.0892,-0.1068,-0.1112,-0.0732,-0.0758,-0.0684,-0.0684,-0.0684,-0.0684,-0.0684,-0.0684,0.0356,0.0475,0.0531,0.0773,0.0883,0.1065,0.1174,0.1356,0.1515,0.1743,0.1817,0.1839,0.1391,0.0102,-0.0812,-0.1031,-0.1359,-0.1374,-0.1542,-0.1364,-0.1352,-0.1342,-0.1398,-0.146,-0.1461,-0.1872,-0.1876,-0.188]}],[{"header":{"parameterUnit":"m.s-1","parameterCategory":2,"la1":30.2991,"la2":30.254,"lo1":-89.0895,"lo2":-89.0444,"dy":0.0017,"dx":0.0017,"nx":28,"ny":28,"refTime":"2025-04-16T03:00:00:Z","depth":"2","parameterNumber":2,"parameterNumberName":"U-component_of_CURRENTS"},"data":[0,0,0,0,0,0,0,0,0,0,0,0,0,0,0,0,0,0,0,0,0,0,0,0,0,0,0,0,0,0,0,0,0,0,0,0,0,0,0,0,0,0,0,0,0,0,0,0,0,0,0,0,0,0,0,0,0,0,0.2191,0.2192,0,0.2266,0.2267,0.2268,0.2295,0.2294,0.2294,0.2294,0.2439,0.2443,0.2447,0,0,0,0,0,0,0,0,0,0,0,0,0,0.213,0.213,0.2191,0.2192,0.2193,0.2266,0.2267,0.2268,0.2295,0.2294,0.2294,0.2294,0.2438,0.2443,0.2447,0,0,0,0,0,0,0,0,0,0,0,0,0,0.2173,0.213,0.2191,0.2217,0.2221,0.2266,0.2267,0.2268,0.2295,0.2294,0.2294,0.2294,0.2437,0.2442,0.2448,0.2485,0,0,0.2466,0.2468,0,0,0,0,0,0,0,0,0.217,0.2175,0.2212,0.2216,0.2219,0.2273,0.2299,0.2345,0.2295,0.2264,0.2294,0.2294,0.2392,0.2402,0.2411,0.2492,0.2498,0.2466,0.247,0.2473,0.2474,0,0,0,0,0,0,0,0.2167,0.2172,0.2218,0.2214,0.2218,0.2246,0.2251,0.2308,0.2327,0.2266,0.2269,0.2282,0.2394,0.2405,0.2415,0.25,0.2466,0.2472,0.2475,0.2477,0.2681,0.2682,0,0,0,0,0,0,0.216,0.2169,0.2216,0.2221,0.2197,0.2247,0.2253,0.2254,0.2325,0.2335,0.2282,0.2283,0.2395,0.2408,0.242,0.2543,0.2472,0.2478,0.2481,0.2679,0.2681,0.2683,0,0,0,0,0,0,0.2158,0.2163,0.2213,0.2199,0.2208,0.2248,0.2249,0.2256,0.2272,0.2336,0.2348,0.2293,0.2396,0.2412,0.2478,0.2546,0.2481,0.2486,0.2676,0.2679,0.2682,0.2741,0,0,0,0,0,0,0.2156,0.2162,0.2169,0.2198,0.2209,0.2246,0.225,0.2257,0.2281,0.2283,0.235,0.2362,0.2397,0.2469,0.2484,0.2553,0.249,0.2674,0.2678,0.2681,0.2737,0.2746,0.2753,0,0,0,0,0,0.2153,0.2158,0.2168,0.2175,0.2213,0.2247,0.2255,0.2282,0.2282,0.2295,0.2338,0.236,0.2503,0.2475,0.2492,0.2564,0.2672,0.2677,0.2681,0.2733,0.2744,0.2753,0,0,0,0,0,0,0.2131,0.2163,0.2174,0.2187,0.222,0.2253,0.2271,0.2284,0.2325,0.2334,0.2378,0.2395,0.2473,0.2505,0.2473,0.2631,0.2595,0.2603,0.2629,0.264,0.2648,0.2612,0.2495,0,0,0,0,0,0.213,0.2146,0.2179,0.2193,0.2206,0.2238,0.2257,0.2279,0.2316,0.2333,0.2377,0.2437,0.2504,0.2557,0.2601,0.2695,0.2704,0.2754,0.2762,0.2769,0.2751,0.2812,0.2824,0.2697,0.2697,0.2697,0,0,0.2123,0.2148,0.2154,0.2191,0.2215,0.225,0.2248,0.2283,0.2321,0.2347,0.2409,0.2454,0.2525,0.262,0.2663,0.2663,0.2816,0.2774,0.278,0.2757,0.2817,0.283,0.284,0.27,0.2699,0.2699,0,0,0.2123,0.2139,0.2154,0.2187,0.2235,0.2262,0.2271,0.2312,0.2338,0.2404,0.2436,0.251,0.2608,0.2679,0.2729,0.281,0.2835,0.2842,0.289,0.2951,0.2961,0.297,0.3022,0.3036,0.2875,0.2875,0.2875,0,0.2113,0.2142,0.2165,0.2199,0.2231,0.2266,0.2298,0.2337,0.2398,0.2441,0.2431,0.2583,0.2637,0.2774,0.2803,0.2831,0.2858,0.285,0.2961,0.297,0.2978,0.3029,0.3043,0.2878,0.2878,0.2878,0.2877,0,0.214,0.2163,0.2176,0.2231,0.2268,0.2303,0.2359,0.2413,0.2449,0.2495,0.2603,0.2666,0.2764,0.2811,0.2835,0.295,0.2948,0.2942,0.2932,0.2994,0.3044,0.3058,0.2883,0.2882,0.2881,0.288,0,0,0.21,0.2177,0.218,0.2215,0.229,0.2323,0.2405,0.2492,0.2565,0.2624,0.2708,0.2822,0.2848,0.29,0.2955,0.3017,0.3111,0.301,0.3012,0.3054,0.3246,0.3175,0.3183,0.3129,0.3131,0.3133,0.3265,0,0.2109,0.2167,0.2211,0.2275,0.2306,0.2384,0.2463,0.2556,0.263,0.2723,0.2803,0.2891,0.289,0.295,0.301,0.3088,0.3144,0.3075,0.3183,0.3186,0.311,0.3195,0.2917,0.3004,0.3278,0.328,0.3282,0,0.2114,0.2159,0.2213,0.2311,0.2334,0.2388,0.2532,0.2605,0.2751,0.2822,0.292,0.296,0.3083,0.3039,0.3197,0.3156,0.3189,0.3228,0.3235,0.3146,0.3139,0.2982,0.3017,0.3303,0.3302,0.33,0.3299,0,0.2079,0.2154,0.2199,0.2233,0.2355,0.2412,0.2483,0.2632,0.272,0.2868,0.2942,0.3072,0.3145,0.3211,0.3282,0.3255,0.3418,0.34,0.3363,0.336,0.3128,0.3099,0.3466,0.3465,0.3465,0.3465,0.3464,0,0.2072,0.2106,0.2185,0.2222,0.2302,0.2385,0.2496,0.2612,0.2763,0.2873,0.2967,0.3067,0.3183,0.328,0.3321,0.3395,0.3461,0.3373,0.3391,0.3143,0.3116,0.3365,0.3351,0.347,0.3469,0.3468,0.3467,0,0.2019,0.2078,0.2131,0.2245,0.2286,0.2334,0.2487,0.2578,0.2728,0.2867,0.2911,0.3099,0.3235,0.3326,0.3463,0.3452,0.3525,0.3515,0.3212,0.3191,0.3415,0.3403,0.351,0.3508,0.3507,0.3506,0.3506,0,0.1991,0.2015,0.2121,0.2163,0.2211,0.2298,0.238,0.2548,0.2635,0.2881,0.2934,0.311,0.3195,0.3374,0.3393,0.3458,0.3526,0.3239,0.3121,0.3413,0.3422,0.3411,0.3402,0.2855,0.2849,0.2844,0.284,0,0.1945,0.1983,0.2041,0.2125,0.2195,0.2273,0.2378,0.244,0.2639,0.2757,0.2921,0.3001,0.3144,0.3091,0.3166,0.3167,0.321,0.314,0.3546,0.2881,0.2805,0.281,0.282,0.2796,0.2801,0.2804,0.2806,0.2808,0.1906,0.1932,0.2024,0.2098,0.2165,0.2234,0.2264,0.2361,0.2478,0.2588,0.2756,0.2782,0.284,0.2806,0.2774,0.2774,0.2982,0.287,0.2882,0.2899,0.2793,0.2719,0.2675,0.2678,0.2682,0.2684,0.2687,0,0.1905,0.1961,0.2007,0.2101,0.2132,0.2197,0.2268,0.2254,0.2303,0.2393,0.2464,0.2298,0.2267,0.2352,0.2266,0.2302,0.2244,0.224,0.213,0.2177,0.2218,0.2072,0.1765,0.1762,0.176,0.1757,0,0,0.1924,0.1995,0.2025,0.2073,0.2104,0.2107,0.2113,0.2069,0.2079,0.2013,0.1992,0.2114,0.2247,0.1946,0.1942,0.1839,0.1985,0.1776,0.2516,0.243,0.2467,0.2589,0.242,0,0,0,0,0]},{"header":{"parameterUnit":"m.s-1","parameterCategory":2,"la1":30.2991,"la2":30.254,"lo1":-89.0895,"lo2":-89.0444,"dy":0.0017,"dx":0.0017,"nx":28,"ny":28,"refTime":"2025-04-16T03:00:00:Z","depth":"2","parameterNumber":3,"parameterNumberName":"V-component_of_CURRENTS"},"data":[0,0,0,0,0,0,0,0,0,0,0,0,0,0,0,0,0,0,0,0,0,0,0,0,0,0,0,0,0,0,0,0,0,0,0,0,0,0,0,0,0,0,0,0,0,0,0,0,0,0,0,0,0,0,0,0,0,0,-0.0171,-0.0172,0,-0.0236,-0.0236,-0.0237,-0.0291,-0.0292,-0.0293,-0.0294,-0.0437,-0.044,-0.0442,0,0,0,0,0,0,0,0,0,0,0,0,0,-0.0069,-0.007,-0.0171,-0.0172,-0.0174,-0.0236,-0.0236,-0.0237,-0.029,-0.0292,-0.0293,-0.0294,-0.0436,-0.0439,-0.0443,0,0,0,0,0,0,0,0,0,0,0,0,0,-0.0116,-0.0071,-0.0171,-0.0212,-0.0217,-0.0236,-0.0236,-0.0237,-0.029,-0.0292,-0.0293,-0.0295,-0.0435,-0.0439,-0.0443,-0.0437,0,0,-0.0456,-0.0458,0,0,0,0,0,0,0,0,-0.0113,-0.0119,-0.0205,-0.0209,-0.0215,-0.0262,-0.0253,-0.031,-0.029,-0.0256,-0.0294,-0.0296,-0.0388,-0.0396,-0.0396,-0.0444,-0.045,-0.0456,-0.0459,-0.0461,-0.0462,0,0,0,0,0,0,0,-0.011,-0.0117,-0.0191,-0.0206,-0.0212,-0.0219,-0.0227,-0.0263,-0.031,-0.0259,-0.0265,-0.028,-0.0391,-0.0391,-0.04,-0.0452,-0.0456,-0.046,-0.0463,-0.0464,-0.0453,-0.0451,0,0,0,0,0,0,-0.0113,-0.0114,-0.0189,-0.0194,-0.0173,-0.022,-0.0229,-0.024,-0.0308,-0.032,-0.0279,-0.0283,-0.0383,-0.0395,-0.0405,-0.0411,-0.0461,-0.0465,-0.0467,-0.0456,-0.0453,-0.045,0,0,0,0,0,0,-0.011,-0.0119,-0.0187,-0.016,-0.017,-0.0221,-0.0233,-0.0241,-0.0253,-0.0323,-0.0336,-0.0284,-0.0385,-0.04,-0.0404,-0.0417,-0.0467,-0.0471,-0.0459,-0.0455,-0.0451,-0.0417,0,0,0,0,0,0,-0.0107,-0.0117,-0.0123,-0.016,-0.0172,-0.0191,-0.0232,-0.0241,-0.0262,-0.0267,-0.0332,-0.0346,-0.0388,-0.0397,-0.0408,-0.0424,-0.0474,-0.0463,-0.0458,-0.0453,-0.0422,-0.0412,-0.0404,0,0,0,0,0,-0.0103,-0.0106,-0.0122,-0.0132,-0.0179,-0.0191,-0.0196,-0.0235,-0.026,-0.0252,-0.0275,-0.0344,-0.0372,-0.0397,-0.0411,-0.0429,-0.0466,-0.0459,-0.0453,-0.0426,-0.0414,-0.0405,0,0,0,0,0,0,-0.0064,-0.0114,-0.0132,-0.015,-0.0167,-0.0202,-0.0209,-0.0231,-0.0241,-0.0255,-0.031,-0.0323,-0.0331,-0.0361,-0.0388,-0.0399,-0.043,-0.0426,-0.0404,-0.0394,-0.0385,-0.0409,-0.0477,0,0,0,0,0,-0.0058,-0.0075,-0.0112,-0.0124,-0.0134,-0.0168,-0.018,-0.0205,-0.0225,-0.0233,-0.0271,-0.0299,-0.0311,-0.0338,-0.0351,-0.0365,-0.0398,-0.0377,-0.0369,-0.0361,-0.0382,-0.0414,-0.0413,-0.0429,-0.0429,-0.0429,0,0,-0.0048,-0.0077,-0.0088,-0.0117,-0.0137,-0.0131,-0.0177,-0.0196,-0.0177,-0.0248,-0.0234,-0.027,-0.0299,-0.0304,-0.0313,-0.0341,-0.0363,-0.0353,-0.0348,-0.0373,-0.0408,-0.0407,-0.0407,-0.0425,-0.0425,-0.0426,0,0,-0.0026,-0.0059,-0.0059,-0.0069,-0.0101,-0.0114,-0.0116,-0.0147,-0.0146,-0.0147,-0.0174,-0.02,-0.024,-0.0252,-0.0266,-0.021,-0.0304,-0.0228,-0.0232,-0.0262,-0.0263,-0.0264,-0.0274,-0.0276,-0.0239,-0.0239,-0.0239,0,-0.0009,-0.0017,-0.0057,-0.0053,-0.0047,-0.01,-0.0075,-0.0078,-0.01,-0.0102,-0.0139,-0.0181,-0.0212,-0.0211,-0.0203,-0.0199,-0.0237,-0.0282,-0.0257,-0.0259,-0.0261,-0.0272,-0.0275,-0.0236,-0.0237,-0.0237,-0.0237,0,0.0013,0.0014,0.0015,0.0009,0.002,0.0022,0.0017,0.0011,-0.0017,-0.0038,-0.0055,-0.0092,-0.0127,-0.0141,-0.0176,-0.0196,-0.0222,-0.0236,-0.0301,-0.0259,-0.027,-0.0274,-0.0233,-0.0234,-0.0235,-0.0235,0,0,0.0041,0.0032,0.0037,0.006,0.0052,0.0069,0.0092,0.0099,0.0108,0.0048,0.0056,0.0002,-0.0061,-0.0077,-0.0116,-0.0175,-0.0213,-0.0238,-0.0241,-0.0278,-0.029,-0.0284,-0.0289,-0.0254,-0.0255,-0.0256,-0.0283,0,0.0078,0.0109,0.0102,0.0161,0.0186,0.0163,0.02,0.0194,0.0173,0.0166,0.0088,0.008,-0.0014,-0.0043,-0.0114,-0.0187,-0.023,-0.0204,-0.0301,-0.0303,-0.0329,-0.0295,-0.0278,-0.0301,-0.0288,-0.0289,-0.0289,0,0.0111,0.0132,0.019,0.0245,0.0256,0.0284,0.0321,0.0352,0.0317,0.0288,0.0218,0.016,0.0079,0.0006,-0.0141,-0.0138,-0.0216,-0.0285,-0.0287,-0.0308,-0.0307,-0.0343,-0.031,-0.0298,-0.0297,-0.0296,-0.0296,0,0.0161,0.0208,0.0263,0.0277,0.0316,0.0343,0.0371,0.0369,0.0413,0.0369,0.0358,0.0243,0.0216,0.0055,-0.0098,-0.0137,-0.0254,-0.0296,-0.0351,-0.035,-0.0365,-0.0364,-0.0379,-0.0379,-0.0379,-0.0379,-0.0379,0,0.0204,0.0253,0.0285,0.0309,0.0389,0.0408,0.0485,0.0475,0.0495,0.0553,0.0429,0.0443,0.0213,0.0121,-0.0057,-0.0214,-0.0207,-0.0356,-0.0364,-0.0344,-0.0341,-0.037,-0.0368,-0.038,-0.038,-0.038,-0.038,0,0.0248,0.0257,0.0328,0.0382,0.0408,0.0469,0.0565,0.0621,0.0614,0.0686,0.0676,0.0592,0.0456,0.0251,0.0043,-0.011,-0.0281,-0.0318,-0.0272,-0.0275,-0.0373,-0.0368,-0.0417,-0.0418,-0.0418,-0.0418,-0.0418,0,0.0271,0.0304,0.0383,0.044,0.0467,0.0559,0.0629,0.0666,0.0745,0.0791,0.0839,0.0744,0.0688,0.0385,0.0095,-0.0183,-0.0218,-0.0318,-0.039,-0.0378,-0.038,-0.0376,-0.0371,-0.038,-0.038,-0.038,-0.0379,0,0.0326,0.0344,0.0397,0.0508,0.0594,0.0708,0.0815,0.0888,0.0959,0.1014,0.1085,0.1041,0.0765,0.0475,0.011,-0.0078,-0.0296,-0.0323,-0.0316,-0.037,-0.0344,-0.0346,-0.0343,-0.0378,-0.0378,-0.0378,-0.0378,-0.0378,0.0367,0.0418,0.0487,0.06,0.0707,0.0851,0.0953,0.1066,0.1194,0.1272,0.1249,0.1178,0.086,0.0362,0.0062,-0.0251,-0.0262,-0.0393,-0.0393,-0.0393,-0.0381,-0.0357,-0.0389,-0.039,-0.039,-0.039,-0.039,0,0.0429,0.0486,0.059,0.0725,0.0861,0.0904,0.1082,0.118,0.1332,0.1364,0.1385,0.1087,0.0762,0.0416,-0.0056,-0.0342,-0.0374,-0.0418,-0.0409,-0.0408,-0.0408,-0.0398,-0.041,-0.0411,-0.0411,-0.0412,0,0,0.0466,0.0562,0.0618,0.0837,0.0946,0.1128,0.1235,0.1349,0.1407,0.1428,0.1372,0.1236,0.0833,0.0488,0.0103,-0.0152,-0.0211,-0.0196,-0.0153,-0.0097,-0.0094,-0.0371,-0.0351,0,0,0,0,0]}],[{"header":{"parameterUnit":"m.s-1","parameterCategory":2,"la1":30.2991,"la2":30.254,"lo1":-89.0895,"lo2":-89.0444,"dy":0.0017,"dx":0.0017,"nx":28,"ny":28,"refTime":"2025-04-16T03:00:00:Z","depth":"4","parameterNumber":2,"parameterNumberName":"U-component_of_CURRENTS"},"data":[0,0,0,0,0,0,0,0,0,0,0,0,0,0,0,0,0,0,0,0,0,0,0,0,0,0,0,0,0,0,0,0,0,0,0,0,0,0,0,0,0,0,0,0,0,0,0,0,0,0,0,0,0,0,0,0,0,0,0.1192,0.1193,0,0.123,0.123,0.123,0.1252,0.1253,0.1253,0.1254,0.1276,0.1276,0.1276,0,0,0,0,0,0,0,0,0,0,0,0,0,0.114,0.1141,0.1192,0.1193,0.1194,0.123,0.123,0.123,0.1252,0.1253,0.1253,0.1254,0.1276,0.1276,0.1276,0,0,0,0,0,0,0,0,0,0,0,0,0,0.1166,0.1141,0.1192,0.1211,0.1214,0.123,0.123,0.123,0.1252,0.1253,0.1253,0.1254,0.1276,0.1276,0.1277,0.1267,0,0,0.1278,0.1278,0,0,0,0,0,0,0,0,0.1164,0.1167,0.1208,0.121,0.1213,0.124,0.122,0.1243,0.1252,0.1234,0.1254,0.1254,0.1264,0.1265,0.1267,0.1268,0.1269,0.1278,0.1278,0.1278,0.1278,0,0,0,0,0,0,0,0.1162,0.1166,0.1204,0.1209,0.1212,0.1219,0.1223,0.1224,0.1243,0.1236,0.1238,0.1247,0.1265,0.1267,0.1268,0.127,0.1278,0.1278,0.1278,0.1278,0.1364,0.1366,0,0,0,0,0,0,0.1164,0.1164,0.1203,0.1205,0.1193,0.1219,0.1224,0.1228,0.1243,0.1247,0.1247,0.1248,0.1266,0.1267,0.1269,0.1313,0.1278,0.1278,0.1279,0.1362,0.1365,0.1367,0,0,0,0,0,0,0.1162,0.1166,0.1201,0.1188,0.1194,0.122,0.1225,0.1228,0.1263,0.1252,0.1255,0.1282,0.1266,0.1268,0.1293,0.1312,0.1279,0.1279,0.136,0.1363,0.1366,0.1366,0,0,0,0,0,0,0.116,0.1165,0.1179,0.1188,0.1195,0.122,0.1224,0.1229,0.1267,0.127,0.1282,0.1283,0.1267,0.1293,0.1293,0.1312,0.1279,0.1357,0.1361,0.1365,0.1363,0.1369,0.1373,0,0,0,0,0,0.1158,0.1168,0.1179,0.1185,0.1209,0.1221,0.1224,0.1243,0.1269,0.1278,0.1295,0.1284,0.1319,0.1294,0.1294,0.1313,0.1355,0.136,0.1365,0.1361,0.1368,0.1373,0,0,0,0,0,0,0.115,0.1172,0.1184,0.12,0.1216,0.1226,0.1243,0.1265,0.1287,0.1298,0.1298,0.1299,0.1336,0.1333,0.1306,0.1357,0.1341,0.1346,0.1339,0.1345,0.1349,0.1412,0.1279,0,0,0,0,0,0.1155,0.1167,0.1189,0.1201,0.1216,0.124,0.1255,0.1267,0.1284,0.1297,0.1318,0.1338,0.1351,0.1354,0.137,0.1383,0.1415,0.1405,0.141,0.1414,0.1469,0.1519,0.1533,0.1382,0.1382,0.1382,0,0,0.1155,0.1169,0.1177,0.12,0.1218,0.124,0.125,0.1275,0.13,0.1294,0.1349,0.1362,0.1365,0.1384,0.1401,0.1382,0.1468,0.142,0.1422,0.1477,0.1525,0.154,0.1553,0.1386,0.1385,0.1384,0,0,0.1153,0.1176,0.1189,0.1208,0.1239,0.1252,0.1271,0.1308,0.1332,0.1374,0.1382,0.1421,0.1441,0.1447,0.1448,0.1499,0.1503,0.1499,0.1556,0.1601,0.1613,0.1625,0.1653,0.1668,0.1487,0.1487,0.1487,0,0.1158,0.1175,0.1194,0.1215,0.1237,0.1267,0.1291,0.1315,0.1359,0.1386,0.1399,0.1483,0.1479,0.1509,0.153,0.151,0.1536,0.1517,0.1606,0.1618,0.163,0.1657,0.1673,0.1488,0.1488,0.1488,0.1488,0,0.1158,0.1189,0.1201,0.1238,0.1261,0.1284,0.1321,0.1363,0.1411,0.1437,0.1514,0.1534,0.1589,0.1582,0.1572,0.1649,0.1638,0.1609,0.1583,0.1645,0.1669,0.1685,0.1488,0.1488,0.1488,0.1488,0,0,0.1133,0.1191,0.1203,0.123,0.1279,0.1296,0.1347,0.1395,0.1446,0.1509,0.1589,0.1629,0.1673,0.1686,0.1682,0.1727,0.1809,0.1715,0.1717,0.1732,0.1909,0.1757,0.176,0.1787,0.1791,0.1794,0.1878,0,0.1136,0.118,0.1208,0.1259,0.1289,0.1335,0.138,0.1428,0.1484,0.1568,0.1621,0.1702,0.1695,0.1742,0.1785,0.1812,0.186,0.179,0.1861,0.1864,0.1712,0.1778,0.1806,0.1891,0.1894,0.1897,0.1899,0,0.1134,0.1166,0.1216,0.1284,0.1304,0.1343,0.1429,0.147,0.1567,0.1622,0.1716,0.1776,0.1874,0.1868,0.197,0.1924,0.195,0.1966,0.1967,0.1855,0.1745,0.1828,0.1929,0.1927,0.1925,0.1923,0.1921,0,0.1105,0.1176,0.1218,0.124,0.1318,0.1362,0.141,0.1495,0.1542,0.1685,0.1757,0.1865,0.1948,0.2013,0.206,0.2032,0.2165,0.2105,0.1997,0.1985,0.2093,0.208,0.2214,0.2214,0.2214,0.2213,0.2213,0,0.1091,0.113,0.1219,0.124,0.1301,0.1361,0.1444,0.1503,0.1612,0.1676,0.1798,0.1881,0.2001,0.2079,0.2105,0.2099,0.2195,0.2051,0.2012,0.2086,0.2072,0.2102,0.2088,0.2217,0.2216,0.2215,0.2215,0,0.1055,0.1109,0.1162,0.1255,0.1289,0.1336,0.1452,0.1503,0.1619,0.1719,0.1784,0.1923,0.2018,0.2101,0.2201,0.2133,0.2156,0.2134,0.2225,0.2183,0.1936,0.1922,0.2021,0.2017,0.2013,0.201,0.2008,0,0.104,0.1067,0.1164,0.1196,0.1246,0.1334,0.1384,0.1496,0.1551,0.1722,0.1757,0.1913,0.1996,0.2006,0.2095,0.2132,0.2109,0.2101,0.2026,0.1973,0.1926,0.1916,0.1907,0.2002,0.2001,0.2,0.1999,0,0.1008,0.1053,0.109,0.1154,0.1213,0.1274,0.1361,0.1393,0.1523,0.1648,0.1707,0.1772,0.1864,0.1923,0.1971,0.1991,0.2091,0.2062,0.2069,0.1999,0.195,0.1905,0.19,0.1986,0.1988,0.1989,0.199,0,0.0987,0.0992,0.1041,0.1088,0.1166,0.1192,0.1248,0.1313,0.1374,0.1552,0.157,0.1717,0.1843,0.1852,0.1894,0.1903,0.1869,0.1797,0.1817,0.1832,0.173,0.1638,0.1579,0,0,0,0,0,0.0945,0.0922,0.0968,0.0995,0.108,0.1116,0.1219,0.1277,0.1414,0.1408,0.1481,0.1562,0.1624,0.1697,0.167,0.1817,0.188,0.1776,0.1808,0.1916,0.1931,0.1827,0,0,0,0,0,0,0.09,0.092,0.0925,0.093,0.0943,0.0997,0.1063,0.1143,0.1152,0.1301,0.1345,0.1453,0.1543,0.1622,0.1634,0.1657,0.1641,0.1864,0.1859,0.1908,0.1921,0.1933,0.1832,0,0,0,0,0]},{"header":{"parameterUnit":"m.s-1","parameterCategory":2,"la1":30.2991,"la2":30.254,"lo1":-89.0895,"lo2":-89.0444,"dy":0.0017,"dx":0.0017,"nx":28,"ny":28,"refTime":"2025-04-16T03:00:00:Z","depth":"4","parameterNumber":3,"parameterNumberName":"V-component_of_CURRENTS"},"data":[0,0,0,0,0,0,0,0,0,0,0,0,0,0,0,0,0,0,0,0,0,0,0,0,0,0,0,0,0,0,0,0,0,0,0,0,0,0,0,0,0,0,0,0,0,0,0,0,0,0,0,0,0,0,0,0,0,0,0.0071,0.0071,0,0.0088,0.0089,0.0089,0.0101,0.0101,0.0101,0.0101,0.0181,0.0183,0.0185,0,0,0,0,0,0,0,0,0,0,0,0,0,0.0101,0.01,0.0071,0.0071,0.0071,0.0088,0.0089,0.0089,0.0101,0.0101,0.0101,0.01,0.018,0.0183,0.0185,0,0,0,0,0,0,0,0,0,0,0,0,0,0.0104,0.01,0.0071,0.0076,0.0076,0.0088,0.0089,0.009,0.0102,0.0101,0.0101,0.01,0.0179,0.0182,0.0186,0.0216,0,0,0.0197,0.0198,0,0,0,0,0,0,0,0,0.0103,0.0103,0.0076,0.0076,0.0076,0.0089,0.0128,0.0134,0.0102,0.0096,0.0101,0.01,0.0153,0.0159,0.0168,0.022,0.0223,0.0197,0.0199,0.0201,0.0202,0,0,0,0,0,0,0,0.0103,0.0103,0.0082,0.0075,0.0076,0.0095,0.0095,0.013,0.0131,0.0097,0.0097,0.0092,0.0155,0.0164,0.017,0.0224,0.0197,0.02,0.0202,0.0204,0.0278,0.0278,0,0,0,0,0,0,0.0091,0.0102,0.0081,0.0082,0.0085,0.0094,0.0094,0.0088,0.0129,0.0133,0.0093,0.0093,0.0158,0.0166,0.0173,0.0225,0.0201,0.0204,0.0206,0.0278,0.0278,0.0278,0,0,0,0,0,0,0.0091,0.0089,0.0081,0.009,0.0089,0.0093,0.0087,0.0089,0.0097,0.0125,0.0131,0.0098,0.0158,0.0168,0.0209,0.0228,0.0206,0.0209,0.0278,0.0278,0.0278,0.0321,0,0,0,0,0,0,0.0092,0.0089,0.0088,0.0089,0.0088,0.01,0.0087,0.0089,0.0093,0.0093,0.0132,0.0139,0.0159,0.0203,0.0212,0.0232,0.0212,0.0278,0.0278,0.0278,0.032,0.0322,0.0324,0,0,0,0,0,0.0093,0.0095,0.0088,0.0085,0.0084,0.01,0.0104,0.0107,0.0093,0.0111,0.0128,0.0137,0.0207,0.0207,0.0218,0.0239,0.0279,0.0278,0.0278,0.0319,0.0322,0.0324,0,0,0,0,0,0,0.0109,0.0096,0.0088,0.0085,0.0095,0.0101,0.0111,0.0107,0.0133,0.0132,0.0152,0.0161,0.0199,0.0207,0.0206,0.0253,0.0238,0.024,0.0265,0.0268,0.027,0.0264,0.0215,0,0,0,0,0,0.0109,0.0107,0.0102,0.0104,0.0104,0.0105,0.0111,0.0115,0.0131,0.014,0.0165,0.0183,0.0205,0.0227,0.025,0.029,0.0256,0.0301,0.0303,0.0306,0.0304,0.0265,0.0264,0.0276,0.0277,0.0277,0,0,0.0114,0.0107,0.0106,0.0107,0.0111,0.013,0.011,0.0123,0.0146,0.0148,0.0191,0.0198,0.0214,0.0255,0.0271,0.0268,0.028,0.0305,0.0307,0.0304,0.0264,0.0263,0.0262,0.0276,0.0276,0.0276,0,0,0.0133,0.0118,0.0127,0.0136,0.0141,0.0148,0.015,0.0161,0.0173,0.0211,0.0207,0.022,0.0271,0.0279,0.029,0.0314,0.029,0.0321,0.0343,0.0305,0.0304,0.0303,0.0244,0.0237,0.0328,0.0328,0.0328,0,0.0139,0.0147,0.0136,0.0152,0.0163,0.0156,0.0181,0.0195,0.0223,0.0237,0.0231,0.0266,0.0278,0.0308,0.0315,0.0322,0.0289,0.0338,0.0309,0.0307,0.0305,0.0245,0.0237,0.033,0.033,0.033,0.033,0,0.0169,0.0177,0.0184,0.0201,0.0219,0.0237,0.025,0.0274,0.028,0.0289,0.0315,0.032,0.0336,0.0339,0.0343,0.0339,0.0315,0.0313,0.0305,0.0306,0.0243,0.0233,0.0333,0.0332,0.0332,0.0331,0,0,0.0175,0.0199,0.0203,0.0222,0.0244,0.0265,0.0303,0.0335,0.0355,0.0369,0.0387,0.0406,0.0387,0.0393,0.0386,0.0357,0.0307,0.0335,0.0332,0.0282,0.0208,0.0179,0.0165,0.0306,0.0305,0.0304,0.0165,0,0.0201,0.024,0.025,0.03,0.032,0.0334,0.0372,0.0401,0.0417,0.0434,0.0417,0.0432,0.0414,0.0417,0.0385,0.0333,0.0287,0.0344,0.0209,0.0205,0.0184,0.0155,0.0301,0.0158,0.0156,0.0154,0.0153,0,0.0227,0.0251,0.0299,0.0347,0.0358,0.0393,0.0445,0.0477,0.0495,0.0507,0.0504,0.0482,0.0452,0.0425,0.0322,0.0362,0.0284,0.023,0.0224,0.0176,0.0159,0.0158,0.0135,0.0137,0.0138,0.0139,0.014,0,0.0239,0.0287,0.0329,0.0344,0.0396,0.043,0.0462,0.0498,0.0529,0.0542,0.0551,0.0511,0.0482,0.0394,0.0285,0.0302,0.0148,0.0155,0.0047,0.0043,0.0093,0.0097,0.0059,0.0059,0.0059,0.0059,0.006,0,0.0258,0.0291,0.0339,0.0361,0.042,0.045,0.0512,0.054,0.057,0.06,0.0579,0.0571,0.0472,0.0378,0.0279,0.0128,0.0136,0.0034,0.0005,0.0112,0.0119,0.0085,0.009,0.0054,0.0055,0.0056,0.0057,0,0.0259,0.0288,0.0337,0.0399,0.0425,0.0466,0.0545,0.0586,0.0612,0.0642,0.0644,0.0599,0.0477,0.0355,0.0194,0.0115,-0.002,-0.0081,0.0019,0.0001,-0.0103,-0.0095,-0.0216,-0.0218,-0.022,-0.0222,-0.0223,0,0.0263,0.0288,0.036,0.04,0.0431,0.05,0.0552,0.0604,0.0645,0.0655,0.0661,0.0559,0.0508,0.0256,0.013,-0.0083,-0.0106,-0.0179,-0.0123,-0.0116,-0.0132,-0.012,-0.0109,-0.0226,-0.0226,-0.0227,-0.0227,0,0.0268,0.0291,0.033,0.0412,0.0474,0.0545,0.0616,0.0644,0.0694,0.0711,0.0666,0.0552,0.0403,0.0235,0.0061,-0.0082,-0.0124,-0.0199,-0.0195,-0.0143,-0.0129,-0.0141,-0.0128,-0.0234,-0.0233,-0.0232,-0.0232,0,0.0268,0.0294,0.0351,0.043,0.0505,0.0575,0.061,0.0652,0.0685,0.0693,0.0665,0.0531,0.0456,0.0231,0.0077,-0.0073,-0.0101,-0.0128,-0.0128,-0.0123,-0.0043,-0.0008,-0.0114,0,0,0,0,0,0.0267,0.0309,0.0376,0.0457,0.0532,0.0588,0.0654,0.0683,0.0716,0.0687,0.0681,0.0547,0.0323,0.0231,0.0072,0.0034,-0.0133,-0.0156,-0.0165,-0.0269,-0.0262,-0.0185,0,0,0,0,0,0,0.027,0.032,0.037,0.0473,0.0541,0.0625,0.0672,0.069,0.0675,0.068,0.0559,0.0517,0.0293,0.0414,0.0075,0.003,0.0004,-0.0255,-0.0258,-0.0274,-0.0267,-0.0261,-0.0179,0,0,0,0,0]}]]